EN

Hourly Weather Manika

Today, 22 January, Friday

Time Temperature Precipitation Wind Pressure Humidity
00:00 +21°C° 0 mm 1 mps 677 mmHg 97%
01:00 +18°C° 0 mm 0 mps 677 mmHg 97%
02:00 +18°C° 0 mm 0 mps 676 mmHg 98%
03:00 +18°C° 0 mm 0 mps 677 mmHg 98%
04:00 +18°C° 0 mm 0 mps 677 mmHg 97%
05:00 +19°C° 0 mm 0 mps 677 mmHg 97%
06:00 +19°C° 0 mm 0 mps 677 mmHg 95%
07:00 +22°C° 0 mm 1 mps 677 mmHg 93%
08:00 +23°C° 0 mm 1 mps 678 mmHg 90%
09:00 +24°C° 0.1 mm 2 mps 677 mmHg 84%
10:00 +25°C° 0.1 mm 2 mps 677 mmHg 78%
11:00 +25°C° 0.1 mm 2 mps 677 mmHg 72%
12:00 +26°C° 0 mm 3 mps 677 mmHg 68%
13:00 +27°C° 0 mm 3 mps 676 mmHg 64%
14:00 +27°C° 0 mm 3 mps 676 mmHg 60%
15:00 +27°C° 0 mm 3 mps 676 mmHg 64%
16:00 +26°C° 0 mm 3 mps 675 mmHg 68%
17:00 +25°C° 0 mm 4 mps 675 mmHg 72%
18:00 +24°C° 0 mm 3 mps 675 mmHg 78%
19:00 +21°C° 0 mm 2 mps 676 mmHg 83%
20:00 +20°C° 0 mm 2 mps 676 mmHg 88%
21:00 +20°C° 0 mm 2 mps 676 mmHg 89%
22:00 +20°C° 0 mm 2 mps 675 mmHg 90%
23:00 +20°C° 0 mm 2 mps 675 mmHg 90%

Tomorrow, 23 January, Saturday

Time Temperature Precipitation Wind Pressure Humidity
00:00 +20°C° 0 mm 2 mps 675 mmHg 89%
01:00 +20°C° 0 mm 3 mps 674 mmHg 88%
02:00 +20°C° 0 mm 3 mps 673 mmHg 87%
03:00 +19°C° 0.1 mm 3 mps 673 mmHg 88%
04:00 +19°C° 0.1 mm 3 mps 672 mmHg 89%
05:00 +19°C° 0.1 mm 3 mps 672 mmHg 90%
06:00 +19°C° 0.3 mm 3 mps 671 mmHg 91%
07:00 +19°C° 0.3 mm 4 mps 671 mmHg 92%
08:00 +19°C° 0.3 mm 4 mps 671 mmHg 93%
09:00 +20°C° 1.8 mm 5 mps 670 mmHg 94%
10:00 +20°C° 1.8 mm 6 mps 670 mmHg 94%
11:00 +20°C° 1.8 mm 6 mps 670 mmHg 95%
12:00 +20°C° 3.7 mm 7 mps 669 mmHg 95%
13:00 +20°C° 3.7 mm 7 mps 669 mmHg 95%
14:00 +20°C° 3.7 mm 7 mps 668 mmHg 95%
15:00 +20°C° 5.4 mm 7 mps 668 mmHg 95%
16:00 +20°C° 5.4 mm 7 mps 668 mmHg 96%
17:00 +20°C° 5.4 mm 7 mps 668 mmHg 96%
18:00 +20°C° 5.6 mm 7 mps 668 mmHg 96%
19:00 +20°C° 5.6 mm 6 mps 669 mmHg 96%
20:00 +20°C° 5.6 mm 6 mps 669 mmHg 96%
21:00 +20°C° 3 mm 6 mps 669 mmHg 96%
22:00 +20°C° 3 mm 5 mps 670 mmHg 96%
23:00 +20°C° 3 mm 5 mps 670 mmHg 96%

Day after tomorrow, 24 January, Sunday

Time Temperature Precipitation Wind Pressure Humidity
00:00 +20°C° 2.6 mm 5 mps 670 mmHg 96%
01:00 +20°C° 2.6 mm 4 mps 670 mmHg 96%
02:00 +20°C° 2.6 mm 4 mps 670 mmHg 96%
03:00 +20°C° 3 mm 4 mps 670 mmHg 96%
04:00 +20°C° 3 mm 3 mps 670 mmHg 95%
05:00 +20°C° 3 mm 3 mps 671 mmHg 95%
06:00 +21°C° 0.2 mm 3 mps 671 mmHg 92%
07:00 +22°C° 0.2 mm 3 mps 672 mmHg 90%
08:00 +22°C° 0.2 mm 4 mps 672 mmHg 87%
09:00 +25°C° 0.5 mm 4 mps 673 mmHg 83%
10:00 +26°C° 0.5 mm 4 mps 673 mmHg 80%
11:00 +27°C° 0.5 mm 4 mps 673 mmHg 76%
12:00 +27°C° 1.3 mm 4 mps 673 mmHg 78%
13:00 +27°C° 1.3 mm 4 mps 672 mmHg 81%
14:00 +26°C° 1.3 mm 3 mps 672 mmHg 83%
15:00 +26°C° 1.9 mm 3 mps 672 mmHg 84%
16:00 +26°C° 1.9 mm 2 mps 672 mmHg 85%
17:00 +26°C° 1.9 mm 2 mps 672 mmHg 86%
18:00 +25°C° 1.6 mm 2 mps 673 mmHg 88%
19:00 +24°C° 1.6 mm 2 mps 673 mmHg 90%
20:00 +23°C° 1.6 mm 2 mps 673 mmHg 92%
21:00 +21°C° 0.8 mm 2 mps 674 mmHg 93%
22:00 +21°C° 0.8 mm 2 mps 674 mmHg 93%
23:00 +21°C° 0.8 mm 2 mps 674 mmHg 94%

25 January, Monday

Time Temperature Precipitation Wind Pressure Humidity
00:00 +21°C° 0.4 mm 2 mps 674 mmHg 94%
01:00 +21°C° 0.4 mm 2 mps 674 mmHg 94%
02:00 +21°C° 0.4 mm 2 mps 674 mmHg 94%
03:00 +21°C° 0.2 mm 2 mps 674 mmHg 94%
04:00 +21°C° 0.2 mm 1 mps 674 mmHg 94%
05:00 +21°C° 0.2 mm 1 mps 674 mmHg 94%
06:00 +22°C° 0.2 mm 1 mps 675 mmHg 93%
07:00 +21°C° 0.2 mm 2 mps 675 mmHg 91%
08:00 +23°C° 0.2 mm 2 mps 676 mmHg 90%
09:00 +24°C° 0.9 mm 2 mps 676 mmHg 88%
10:00 +25°C° 0.9 mm 2 mps 676 mmHg 85%
11:00 +25°C° 0.9 mm 2 mps 676 mmHg 83%
12:00 +26°C° 0.6 mm 2 mps 676 mmHg 80%
13:00 +27°C° 0.6 mm 2 mps 675 mmHg 77%
14:00 +27°C° 0.6 mm 2 mps 675 mmHg 74%
15:00 +26°C° 1.2 mm 2 mps 675 mmHg 79%
16:00 +25°C° 1.2 mm 2 mps 675 mmHg 84%
17:00 +24°C° 1.2 mm 2 mps 675 mmHg 89%
18:00 +24°C° 0.5 mm 2 mps 675 mmHg 91%
19:00 +23°C° 0.5 mm 2 mps 675 mmHg 93%
20:00 +21°C° 0.5 mm 2 mps 676 mmHg 95%
21:00 +21°C° 0.5 mm 2 mps 676 mmHg 95%
22:00 +22°C° 0.5 mm 1 mps 676 mmHg 95%
23:00 +22°C° 0.5 mm 1 mps 677 mmHg 96%

26 January, Tuesday

Time Temperature Precipitation Wind Pressure Humidity
00:00 +22°C° 0.6 mm 1 mps 676 mmHg 96%
01:00 +22°C° 0.6 mm 1 mps 676 mmHg 96%
02:00 +21°C° 0.6 mm 1 mps 676 mmHg 96%
03:00 +21°C° 0.6 mm 1 mps 676 mmHg 96%
04:00 +21°C° 0.6 mm 1 mps 676 mmHg 96%
05:00 +21°C° 0.6 mm 1 mps 676 mmHg 96%
06:00 +22°C° 0.4 mm 1 mps 677 mmHg 94%
07:00 +22°C° 0.4 mm 1 mps 677 mmHg 93%
08:00 +23°C° 0.4 mm 1 mps 678 mmHg 92%
09:00 +24°C° 1 mm 1 mps 678 mmHg 90%
10:00 +24°C° 1 mm 1 mps 678 mmHg 88%
11:00 +25°C° 1 mm 2 mps 678 mmHg 86%
12:00 +25°C° 1.6 mm 2 mps 677 mmHg 86%
13:00 +25°C° 1.6 mm 2 mps 677 mmHg 87%
14:00 +25°C° 1.6 mm 2 mps 676 mmHg 87%
15:00 +25°C° 1.6 mm 1 mps 676 mmHg 87%
16:00 +25°C° 1.6 mm 1 mps 676 mmHg 87%
17:00 +25°C° 1.6 mm 1 mps 676 mmHg 87%
18:00 +24°C° 1.3 mm 1 mps 676 mmHg 90%
19:00 +23°C° 1.3 mm 1 mps 676 mmHg 92%
20:00 +22°C° 1.3 mm 1 mps 677 mmHg 95%
21:00 +22°C° 0.5 mm 1 mps 677 mmHg 96%
22:00 +21°C° 0.5 mm 1 mps 677 mmHg 96%
23:00 +21°C° 0.5 mm 1 mps 677 mmHg 97%

27 January, Wednesday

Time Temperature Precipitation Wind Pressure Humidity
00:00 +21°C° 0 mm 1 mps 677 mmHg 97%
01:00 +21°C° 0 mm 1 mps 676 mmHg 97%
02:00 +20°C° 0 mm 1 mps 676 mmHg 97%
03:00 +20°C° 0 mm 1 mps 676 mmHg 97%
04:00 +20°C° 0 mm 1 mps 676 mmHg 97%
05:00 +20°C° 0 mm 1 mps 676 mmHg 97%
06:00 +21°C° 0 mm 1 mps 677 mmHg 93%
07:00 +22°C° 0 mm 1 mps 677 mmHg 90%
08:00 +24°C° 0 mm 1 mps 678 mmHg 86%
09:00 +25°C° 0 mm 1 mps 678 mmHg 79%
10:00 +27°C° 0 mm 1 mps 678 mmHg 73%
11:00 +29°C° 0 mm 1 mps 678 mmHg 66%
12:00 +29°C° 0.5 mm 1 mps 677 mmHg 66%
13:00 +29°C° 0.5 mm 1 mps 676 mmHg 66%
14:00 +29°C° 0.5 mm 1 mps 675 mmHg 66%
15:00 +28°C° 1 mm 2 mps 675 mmHg 71%
16:00 +27°C° 1 mm 2 mps 675 mmHg 77%
17:00 +27°C° 1 mm 3 mps 674 mmHg 83%
18:00 +25°C° 1.1 mm 2 mps 674 mmHg 87%
19:00 +24°C° 1.1 mm 2 mps 675 mmHg 91%
20:00 +21°C° 1.1 mm 2 mps 675 mmHg 95%
21:00 +21°C° 0.6 mm 2 mps 675 mmHg 96%
22:00 +21°C° 0.6 mm 2 mps 675 mmHg 96%
23:00 +21°C° 0.6 mm 2 mps 675 mmHg 97%
Show more

We Need Your Consent

Meteoprog and our Service Providers may store and access personal data such as cookies, device identifiers or other similar technologies on your device and process such data to personalise content and ads, as well as provide social media features and to analyse the traffic.

  • Store and/or access information on your device

    Cookies, device identifiers or other information can be stored or accessed on your device for the purposes indicated above.

  • Personalised ads and content, ad and content measurement, audience insights, and products development

    Ads and content can be personalised based on a profile. More data can be added to better personalise ads and content. Ad and content performance can be measured. Insights about the audience who saw the ads and content can be derived. Such data can be used to develop or improve user’s experience, systems and software.

By clicking ‘I Agree’ you will allow the use of indicated cookies, device identifiers, web beacons or other similar technologies. Your settings can be changed in the browser on your device.

For certain purposes, legitimate interests may be relied on, rather than consent. You can read more about this in our Privacy and Cookie Policy.